2022年5月23日

时间 代码 天气 温度 能见度 乌云 METAR/SPECI
08:25
V
15 °C 10 km+ - 110°   110° 6 kt METAR EHGG 230625Z AUTO 11006KT 070V150 9999 NSC 15/10 Q1005 NOSIG
07:55
V
14 °C 10 km+ - 100°   100° 6 kt METAR EHGG 230555Z AUTO 10006KT 060V140 9999 NSC 14/09 Q1005 NOSIG
07:25
V
13 °C 10 km+ - 090°   090° 5 kt METAR EHGG 230525Z AUTO 09005KT 060V120 9999 NSC 13/09 Q1005 NOSIG
06:55
V
13 °C 10 km+ - 100°   100° 5 kt METAR EHGG 230455Z AUTO 10005KT 060V130 9999 NSC 13/08 Q1006 NOSIG
06:25
V
12 °C 10 km+ - 100°   100° 5 kt METAR EHGG 230425Z AUTO 10005KT 070V140 9999 NSC 12/08 Q1006 NOSIG
05:55
V
12 °C 10 km+ - 100°   100° 5 kt METAR EHGG 230355Z AUTO 10005KT 070V140 9999 NSC 12/08 Q1007
05:25
V
12 °C 10 km+ - 100°   100° 6 kt METAR EHGG 230325Z AUTO 10006KT 070V130 9999 NSC 12/08 Q1007
04:55
V
13 °C 10 km+ - 090°   090° 6 kt METAR EHGG 230255Z AUTO 09006KT 060V140 9999 NSC 13/08 Q1007
04:25
V
13 °C 10 km+ - 090°   090° 6 kt METAR EHGG 230225Z AUTO 09006KT 9999 NSC 13/08 Q1008
03:55
V
12 °C 10 km+ - 090°   090° 5 kt METAR EHGG 230155Z AUTO 09005KT 060V130 9999 NSC 12/08 Q1008
03:25
V
12 °C 10 km+ - 090°   090° 6 kt METAR EHGG 230125Z AUTO 09006KT 060V120 9999 NSC 12/08 Q1008
02:55
V
12 °C 10 km+ - 100°   100° 6 kt METAR EHGG 230055Z AUTO 10006KT 080V150 9999 NSC 12/08 Q1009
02:25
V
13 °C 10 km+ - 100°   100° 6 kt METAR EHGG 230025Z AUTO 10006KT 070V130 9999 NSC 13/08 Q1009
01:55
V
13 °C 10 km+ - 100°   100° 5 kt METAR EHGG 222355Z AUTO 10005KT 070V150 9999 NSC 13/08 Q1010
01:25
V
13 °C 10 km+ - 100°   100° 5 kt METAR EHGG 222325Z AUTO 10005KT 070V130 9999 NSC 13/09 Q1010
00:55
V
13 °C 10 km+ - 100°   100° 5 kt METAR EHGG 222255Z AUTO 10005KT 070V140 9999 NSC 13/09 Q1011
00:25
V
14 °C 10 km+ - 110°   110° 6 kt METAR EHGG 222225Z AUTO 11006KT 9999 NSC 14/09 Q1011

2022年5月22日

时间 代码 天气 温度 能见度 乌云 METAR/SPECI
23:55
V
14 °C 10 km+ - 100°   100° 6 kt METAR EHGG 222155Z AUTO 10006KT 070V140 9999 NSC 14/09 Q1011
23:25
V
14 °C 10 km+ - 100°   100° 6 kt METAR EHGG 222125Z AUTO 10006KT 070V140 9999 NSC 14/09 Q1011
22:55
V
15 °C 10 km+ - 100°   100° 5 kt METAR EHGG 222055Z AUTO 10005KT 070V130 9999 NSC 15/09 Q1011 NOSIG
22:25
V
15 °C 10 km+ - 100°   100° 5 kt METAR EHGG 222025Z AUTO 10005KT 070V140 9999 NSC 15/09 Q1012 NOSIG
21:55
V
15 °C 10 km+ - 100°   100° 4 kt METAR EHGG 221955Z AUTO 10004KT 070V140 9999 NSC 15/09 Q1012 NOSIG
21:25
V
16 °C 10 km+ - 100°   100° 4 kt METAR EHGG 221925Z AUTO 10004KT 070V130 9999 NSC 16/09 Q1012 NOSIG
20:55
V
17 °C 10 km+ - 100°   100° 5 kt METAR EHGG 221855Z AUTO 10005KT 070V130 9999 NSC 17/09 Q1012 NOSIG
20:25
V
18 °C 10 km+ - 110°   110° 4 kt METAR EHGG 221825Z AUTO 11004KT 080V150 9999 NSC 18/09 Q1012 NOSIG
19:55
V
18 °C 10 km+ - 120°   120° 4 kt METAR EHGG 221755Z AUTO 12004KT 070V170 9999 NSC 18/09 Q1012 NOSIG
19:25
V
19 °C 10 km+ - 100°   100° 7 kt METAR EHGG 221725Z AUTO 10007KT 060V140 9999 FEW049 19/09 Q1013 NOSIG
18:55
V
19 °C 10 km+ - 120°   120° 7 kt METAR EHGG 221655Z AUTO 12007KT 070V170 9999 NSC 19/09 Q1013 NOSIG
18:25
V
19 °C 10 km+ - 110°   110° 6 kt METAR EHGG 221625Z AUTO 11006KT 040V170 9999 NSC 19/09 Q1013 NOSIG
17:55
V
18 °C 10 km+ - 130°   130° 6 kt METAR EHGG 221555Z AUTO 13006KT 070V190 9999 FEW041 18/09 Q1013 NOSIG
17:25
V
19 °C 10 km+ - 120°   120° 4 kt METAR EHGG 221525Z AUTO 12004KT 070V190 9999 FEW048 19/09 Q1014 NOSIG
16:55
V
19 °C 10 km+ 4.700 ft 130°   130° 6 kt METAR EHGG 221455Z AUTO 13006KT 100V170 9999 SCT040 BKN047 19/10 Q1014 NOSIG
16:25
V
19 °C 10 km+ - 110°   110° 5 kt METAR EHGG 221425Z AUTO 11005KT 050V190 9999 FEW046 19/10 Q1014 NOSIG
15:55
V
19 °C 10 km+ - 100°   100° 5 kt METAR EHGG 221355Z AUTO 10005KT 060V150 9999 SCT042 19/09 Q1014 NOSIG
15:25
V
19 °C 10 km+ - 090°   090° 6 kt METAR EHGG 221325Z AUTO 09006KT 040V130 9999 NSC 19/08 Q1015 NOSIG
14:55
V
18 °C 10 km+ 4.000 ft 100°   100° 4 kt METAR EHGG 221255Z AUTO 10004KT 080V210 9999 OVC040 18/09 Q1015 NOSIG
14:25
V
18 °C 10 km+ - 080°   080° 5 kt METAR EHGG 221225Z AUTO 08005KT 050V140 9999 FEW043 SCT047 18/09 Q1015 NOSIG
13:55
V
18 °C 10 km+ 4.100 ft Var   Var 3 kt METAR EHGG 221155Z AUTO VRB03KT 9999 BKN041 18/09 Q1015 NOSIG
13:25
V
18 °C 10 km+ 3.900 ft 030°   030° 3 kt METAR EHGG 221125Z AUTO 03003KT 330V080 9999 BKN039 OVC044 18/08 Q1016 NOSIG
12:55
V
18 °C 10 km+ 3.700 ft 180°   180° 3 kt METAR EHGG 221055Z AUTO 18003KT 110V280 9999 BKN037 BKN043 18/07 Q1016 NOSIG
12:25
V
18 °C 10 km+ 3.300 ft Var   Var 4 kt METAR EHGG 221025Z AUTO VRB04KT 9999 BKN033 OVC039 18/10 Q1016 NOSIG
11:55
V
17 °C 10 km+ - 290°   290° 3 kt METAR EHGG 220955Z AUTO 29003KT 210V340 9999 FEW035 SCT040 17/08 Q1017 NOSIG
11:25
V
18 °C 10 km+ - Var   Var 3 kt METAR EHGG 220925Z AUTO VRB03KT 9999 FEW030 18/10 Q1017 NOSIG
10:55
M
17 °C 10 km+ 2.600 ft Var   Var 3 kt METAR EHGG 220855Z AUTO VRB03KT 9999 BKN026 17/09 Q1017 NOSIG
10:25
V
16 °C 10 km+ - 210°   210° 4 kt METAR EHGG 220825Z AUTO 21004KT 130V300 9999 FEW023 16/10 Q1017 NOSIG
09:55
V
15 °C 10 km+ - 220°   220° 4 kt METAR EHGG 220755Z AUTO 22004KT 140V280 9999 FEW018 15/10 Q1017 NOSIG
09:25
V
15 °C 10 km+ - 190°   190° 4 kt METAR EHGG 220725Z AUTO 19004KT 140V240 9999 NCD 15/11 Q1017 NOSIG
08:55
V
14 °C 10 km+ - 190°   190° 5 kt METAR EHGG 220655Z AUTO 19005KT 160V240 9999 NCD 14/11 Q1017 NOSIG
08:25
V
13 °C 10 km+ - 200°   200° 5 kt METAR EHGG 220625Z AUTO 20005KT 9999 NCD 13/11 Q1017 NOSIG
07:55
V
11 °C 10 km+ - 210°   210° 4 kt METAR EHGG 220555Z AUTO 21004KT 9999 NCD 11/10 Q1018 NOSIG
07:25
V
10 °C 9 km - 190°   190° 3 kt METAR EHGG 220525Z AUTO 19003KT 150V220 9000 NSC 10/10 Q1017 NOSIG
06:55
V
8 °C 8 km - 170°   170° 1 kt METAR EHGG 220455Z AUTO 17001KT 8000 NSC 08/08 Q1018 BECMG CAVOK
06:25
V
6 °C 10 km+ - 190°   190° 1 kt METAR EHGG 220425Z AUTO 19001KT 9999 NSC 06/06 Q1018 BECMG CAVOK
05:55
L
5 °C 250 m - 180°   180° 2 kt METAR EHGG 220355Z AUTO 18002KT 0250 R23/0400N FG NSC 05/05 Q1018
05:25
V
4 °C 10 km+ - 180°   180° 1 kt METAR EHGG 220325Z AUTO 18001KT 9999 R23/1100U NSC 04/04 Q1018
04:55
V
5 °C 10 km+ - Var   Var 1 kt METAR EHGG 220255Z AUTO VRB01KT 9999 NSC 05/05 Q1018
04:25
M
5 °C 6 km - 190°   190° 2 kt METAR EHGG 220225Z AUTO 19002KT 6000 NSC 05/05 Q1018
03:55
L
5 °C 400 m - 230°   230° 2 kt METAR EHGG 220155Z AUTO 23002KT 0400 R23/0450D FG NSC 05/05 Q1018
03:25
M
6 °C 6 km - 220°   220° 1 kt METAR EHGG 220125Z AUTO 22001KT 6000 NSC 06/06 Q1018
02:55
L
5 °C 1 km - 220°   220° 2 kt METAR EHGG 220055Z AUTO 22002KT 1000 R23/1600N BR NSC 05/05 Q1018
02:25
I
6 °C 2,6 km - 220°   220° 3 kt METAR EHGG 220025Z AUTO 22003KT 2600 BR NSC 06/06 Q1019
01:55
M
6 °C 6 km - 240°   240° 3 kt METAR EHGG 212355Z AUTO 24003KT 6000 NSC 06/06 Q1019
01:25
L
6 °C 500 m - 220°   220° 2 kt METAR EHGG 212325Z AUTO 22002KT 0500 R23/1100N FG NSC 06/06 Q1019
00:55
V
7 °C 10 km+ - 220°   220° 1 kt METAR EHGG 212255Z AUTO 22001KT 9999 NSC 07/06 Q1019
00:25
V
7 °C 10 km+ - 220°   220° 2 kt METAR EHGG 212225Z AUTO 22002KT 9999 NSC 07/06 Q1019

2022年5月21日

时间 代码 天气 温度 能见度 乌云 METAR/SPECI
23:55
V
8 °C 10 km+ - Var   000° 0 kt METAR EHGG 212155Z AUTO 00000KT 9999 NCD 08/08 Q1019
23:25
V
8 °C 10 km+ - 220°   220° 3 kt METAR EHGG 212125Z AUTO 22003KT 9999 NCD 08/07 Q1020
22:55
V
9 °C 10 km+ - 240°   240° 3 kt METAR EHGG 212055Z AUTO 24003KT 9999 NSC 09/08 Q1020
22:25
V
11 °C 10 km+ - 260°   260° 3 kt METAR EHGG 212025Z AUTO 26003KT 9999 NSC 11/08 Q1020 NOSIG
21:55
V
12 °C 10 km+ - 270°   270° 4 kt METAR EHGG 211955Z AUTO 27004KT 9999 NSC 12/09 Q1020 NOSIG
21:25
V
13 °C 10 km+ - 260°   260° 6 kt METAR EHGG 211925Z AUTO 26006KT 230V310 9999 NSC 13/09 Q1020 NOSIG
20:55
V
13 °C 10 km+ - 260°   260° 7 kt METAR EHGG 211855Z AUTO 26007KT 230V300 9999 FEW026 13/08 Q1020 NOSIG
20:25
V
14 °C 10 km+ - 270°   270° 7 kt METAR EHGG 211825Z AUTO 27007KT 230V290 9999 NSC 14/08 Q1020 NOSIG
19:55
V
14 °C 10 km+ - 260°   260° 10 kt METAR EHGG 211755Z AUTO 26010KT 9999 NSC 14/08 Q1019 NOSIG
19:25
V
15 °C 10 km+ - 260°   260° 10 kt METAR EHGG 211725Z AUTO 26010KT 220V300 9999 NSC 15/08 Q1019 NOSIG
18:55
V
15 °C 10 km+ - 260°   260° 11 kt METAR EHGG 211655Z AUTO 26011KT 230V290 9999 NSC 15/08 Q1019 NOSIG
18:25
V
16 °C 10 km+ - 270°   270° 13 kt METAR EHGG 211625Z AUTO 27013KT 220V300 9999 FEW033 SCT040 16/08 Q1019 NOSIG
17:55
V
16 °C 10 km+ 4.400 ft 260°   260° 11 kt METAR EHGG 211555Z AUTO 26011KT 230V320 9999 FEW029 SCT033 BKN044 16/09 Q1019 NOSIG
17:25
V
17 °C 10 km+ - 270°   270° 14 kt METAR EHGG 211525Z AUTO 27014KT 230V330 9999 FEW033 17/07 Q1019 NOSIG
16:55
V
16 °C 10 km+ 4.600 ft 270°   270° 12 kt METAR EHGG 211455Z AUTO 27012KT 230V310 9999 FEW033 SCT042 BKN046 16/09 Q1019 NOSIG
16:25
V
17 °C 10 km+ 3.300 ft 270°   270° 11 kt METAR EHGG 211425Z AUTO 27011KT 230V310 9999 BKN033 BKN038 17/08 Q1019 NOSIG
15:55
V
17 °C 10 km+ 3.300 ft 280°   280° 12 kt METAR EHGG 211355Z AUTO 28012KT 240V310 9999 BKN033 BKN040 BKN047 17/09 Q1019 NOSIG
15:25
V
17 °C 10 km+ - 270°   270° 12 kt METAR EHGG 211325Z AUTO 27012KT 230V310 9999 FEW033 17/09 Q1019 NOSIG
14:55
M
17 °C 10 km+ 2.800 ft 270°   270° 11 kt METAR EHGG 211255Z AUTO 27011KT 230V320 9999 BKN028 BKN032 OVC040 17/09 Q1019 NOSIG
14:25
V
17 °C 10 km+ - 260°   260° 15 kt METAR EHGG 211225Z AUTO 26015KT 220V300 9999 FEW032 SCT047 17/09 Q1019 NOSIG
13:55
V
18 °C 10 km+ 3.200 ft 260°   260° 13 kt METAR EHGG 211155Z AUTO 26013KT 230V310 9999 SCT028 BKN032 BKN040 18/10 Q1019 NOSIG
13:25
V
16 °C 10 km+ 4.500 ft 270°   270° 13 kt METAR EHGG 211125Z AUTO 27013KT 230V300 9999 SCT028 SCT035 BKN045 16/09 Q1019 NOSIG
12:55
V
16 °C 10 km+ 4.700 ft 280°   280° 9 kt METAR EHGG 211055Z AUTO 28009KT 250V340 9999 FEW028 SCT034 BKN047 16/09 Q1019 NOSIG
12:25
V
16 °C 10 km+ 4.600 ft 270°   270° 12 kt METAR EHGG 211025Z AUTO 27012KT 220V310 9999 FEW029 SCT039 BKN046 16/09 Q1019 NOSIG
11:55
M
16 °C 10 km+ 2.400 ft 270°   270° 11 kt METAR EHGG 210955Z AUTO 27011KT 230V320 9999 BKN024 BKN028 BKN032 16/10 Q1018 NOSIG
11:25
M
15 °C 10 km+ 2.800 ft 270°   270° 14 kt METAR EHGG 210925Z AUTO 27014KT 210V320 9999 SCT023 BKN028 BKN031 15/09 Q1018 NOSIG
10:55
V
16 °C 10 km+ 3.700 ft 270°   270° 14 kt METAR EHGG 210855Z AUTO 27014KT 220V300 9999 SCT023 SCT027 BKN037 16/09 Q1018 NOSIG
10:25
M
15 °C 10 km+ 2.400 ft 280°   280° 14 kt METAR EHGG 210825Z AUTO 28014KT 240V320 9999 SCT021 BKN024 BKN028 15/10 Q1018 NOSIG
09:55
V
15 °C 10 km+ - 270°   270° 11 kt METAR EHGG 210755Z AUTO 27011KT 230V310 9999 SCT021 SCT029 15/10 Q1017 NOSIG
09:25
M
15 °C 10 km+ 2.200 ft 270°   270° 14 kt METAR EHGG 210725Z AUTO 27014KT 230V320 9999 SCT018 BKN022 BKN025 15/10 Q1017 NOSIG
08:55
M
15 °C 10 km+ 1.600 ft 270°   270° 14 kt METAR EHGG 210655Z AUTO 27014KT 210V300 9999 BKN016 BKN019 BKN024 15/10 Q1017 NOSIG
08:25
M
14 °C 10 km+ 2.000 ft 260°   260° 12 kt METAR EHGG 210625Z AUTO 26012KT 230V300 9999 SCT016 BKN020 BKN025 14/11 Q1016 NOSIG
07:55
M
13 °C 10 km+ 1.500 ft 260°   260° 10 kt METAR EHGG 210555Z AUTO 26010KT 230V300 9999 BKN015 OVC020 13/11 Q1016 NOSIG
07:25
M
13 °C 10 km+ 2.000 ft 260°   260° 10 kt METAR EHGG 210525Z AUTO 26010KT 230V300 9999 SCT016 BKN020 OVC024 13/11 Q1016 NOSIG
06:55
M
13 °C 10 km+ 2.800 ft 260°   260° 11 kt METAR EHGG 210455Z AUTO 26011KT 230V290 9999 FEW015 SCT025 BKN028 13/11 Q1016 NOSIG
较旧的数据

下载我们的应用程序

在您的手机和平板电脑上轻松访问所有航空天气。
有许多网站上没有的功能,如离线支持和个人机场列表。

Studio Eveline

Benalmádena
España

我们和第三方通过cookies跟踪您在我们网站上的上网行为。如果您继续,我们认为您同意我们的cookie政策。 了解更多